Satellite: NO-44
Catalog number: 26931
Epoch time:      11033.93130491
Element set:    0672
Inclination:      067.0546 deg
RA of node:       329.4590 deg
Eccentricity:    0.0006964
Arg of perigee:   270.6775 deg
Mean anomaly:     089.3524 deg
Mean motion:   14.29630506 rev/day
Decay rate:      -2.95e-06 rev/day^2
Epoch rev:           48773
Checksum:              324

Satellite: SO-50
Catalog number: 27607
Epoch time:      11033.45174328
Element set:    0382
Inclination:      064.5588 deg
RA of node:       017.0516 deg
Eccentricity:    0.0057670
Arg of perigee:   353.1850 deg
Mean anomaly:     006.8475 deg
Mean motion:   14.71636410 rev/day
Decay rate:       -4.0e-08 rev/day^2
Epoch rev:           43626
Checksum:              289

Satellite: CO-55
Catalog number: 27844
Epoch time:      11034.58432524
Element set:      37
Inclination:      098.7084 deg
RA of node:       045.2202 deg
Eccentricity:    0.0009121
Arg of perigee:   222.1556 deg
Mean anomaly:     137.8914 deg
Mean motion:   14.20765172 rev/day
Decay rate:        4.6e-07 rev/day^2
Epoch rev:           39394
Checksum:              291

Satellite: CO-57
Catalog number: 27848
Epoch time:      11033.52118630
Element set:     983
Inclination:      098.7139 deg
RA of node:       043.3195 deg
Eccentricity:    0.0009112
Arg of perigee:   229.9931 deg
Mean anomaly:     130.0451 deg
Mean motion:   14.20550644 rev/day
Decay rate:        2.2e-07 rev/day^2
Epoch rev:           39374
Checksum:              291

Satellite: AO-51
Catalog number: 28375
Epoch time:      11034.90735998
Element set:     887
Inclination:      098.0823 deg
RA of node:       020.4681 deg
Eccentricity:    0.0084515
Arg of perigee:   113.6413 deg
Mean anomaly:     247.3674 deg
Mean motion:   14.40722014 rev/day
Decay rate:        2.4e-07 rev/day^2
Epoch rev:           34687
Checksum:              309

Satellite: CP3
Catalog number: 31129
Epoch time:      11033.88060077
Element set:    0790
Inclination:      097.9133 deg
RA of node:       065.7774 deg
Eccentricity:    0.0101364
Arg of perigee:   237.7858 deg
Mean anomaly:     121.3435 deg
Mean motion:   14.52369160 rev/day
Decay rate:       -2.9e-07 rev/day^2
Epoch rev:           20134
Checksum:              290

Satellite: CO-65
Catalog number: 32785
Epoch time:      11034.72332092
Element set:     905
Inclination:      097.8671 deg
RA of node:       101.0805 deg
Eccentricity:    0.0013820
Arg of perigee:   250.1768 deg
Mean anomaly:     109.7958 deg
Mean motion:   14.81816180 rev/day
Decay rate:       -5.1e-07 rev/day^2
Epoch rev:           14977
Checksum:              306

Satellite: KKS-1
Catalog number: 33493
Epoch time:      11034.76953689
Element set:     276
Inclination:      098.1063 deg
RA of node:       161.6311 deg
Eccentricity:    0.0021041
Arg of perigee:   111.5676 deg
Mean anomaly:     248.7788 deg
Mean motion:   14.81303621 rev/day
Decay rate:       4.43e-06 rev/day^2
Epoch rev:           10976
Checksum:              298

Satellite: SOHLA-1
Catalog number: 33496
Epoch time:      11034.80358071
Element set:     324
Inclination:      098.0686 deg
RA of node:       146.0902 deg
Eccentricity:    0.0006602
Arg of perigee:   178.6219 deg
Mean anomaly:     181.5017 deg
Mean motion:   14.69551803 rev/day
Decay rate:       -4.1e-07 rev/day^2
Epoch rev:           10889
Checksum:              291

Satellite: TISAT-1
Catalog number: 36799
Epoch time:      11034.78453067
Element set:     550
Inclination:      098.1191 deg
RA of node:       101.6421 deg
Eccentricity:    0.0015259
Arg of perigee:   352.7711 deg
Mean anomaly:     007.3267 deg
Mean motion:   14.80302866 rev/day
Decay rate:       2.53e-06 rev/day^2
Epoch rev:            3057
Checksum:              284

Satellite: STUDSAT
Catalog number: 36801
Epoch time:      11033.76736081
Element set:    0134
Inclination:      098.1248 deg
RA of node:       100.4729 deg
Eccentricity:    0.0013824
Arg of perigee:   344.0181 deg
Mean anomaly:     016.0590 deg
Mean motion:   14.79973531 rev/day
Decay rate:       7.03e-06 rev/day^2
Epoch rev:           03041
Checksum:              263

Satellite: RAX
Catalog number: 37223
Epoch time:      11032.44671713
Element set:    0070
Inclination:      071.9746 deg
RA of node:       338.3080 deg
Eccentricity:    0.0021458
Arg of perigee:   184.2321 deg
Mean anomaly:     175.8663 deg
Mean motion:   14.77226199 rev/day
Decay rate:       2.06e-06 rev/day^2
Epoch rev:           01084
Checksum:              278

Satellite: OOREOS
Catalog number: 37224
Epoch time:      11031.44731873
Element set:    0071
Inclination:      071.9747 deg
RA of node:       340.6006 deg
Eccentricity:    0.0020047
Arg of perigee:   184.3247 deg
Mean anomaly:     175.7744 deg
Mean motion:   14.76886093 rev/day
Decay rate:       1.23e-06 rev/day^2
Epoch rev:           01068
Checksum:              282

Satellite: NANOSALD
Catalog number: 37225
Epoch time:      11029.15737677
Element set:    0014
Inclination:      071.9741 deg
RA of node:       345.7226 deg
Eccentricity:    0.0018614
Arg of perigee:   180.5975 deg
Mean anomaly:     179.5130 deg
Mean motion:   14.77379680 rev/day
Decay rate:     2.0319e-04 rev/day^2
Epoch rev:           00145
Checksum:              303

